This demonstration page uses our WeatherBlox Daily Observations layout. Learn more.

Left ArrowRight Arrow

44.8408, -93.29828

Hourly Observations for August 14, 2017

Temp ( °F °C ) Dew Point ( °F °C ) Humidity (%) Winds ( mph kmh ) Pressure ( in mb ) Visibility ( mi km ) Precip ( " mm )
12:17 am 00:17 Cloudy with Rain 63 17.2 59 15 87 87 ESE 10 17 29.88 1012 4 6 0.05 1.27
12:24 am 00:24 Cloudy with Light Rain 63 17.2 60 15.6 90 90 ESE 12 19 29.88 1012 6 10 0.06 1.52
12:53 am 00:53 Cloudy with Light Rain 63 17.2 60 15.6 90 90 SE 8 13 29.87 1012 6 10 0.09 2.29
1:10 am 01:10 Cloudy with Light Rain 63 17.2 60 15.6 90 90 E 7 11 29.88 1012 8 13 0.01 0.25
1:53 am 01:53 Cloudy 63 17.2 60 15.6 90 90 E 9 15 29.85 1011 10 16 0.01 0.25
2:05 am 02:05 Cloudy 63 17.2 60 15.6 90 90 ENE 9 15 29.85 1011 10 16 0.00 0.00
2:28 am 02:28 Cloudy 63 17.2 60 15.6 90 90 E 9 15 29.85 1011 10 16 0.00 0.00
2:53 am 02:53 Cloudy 63 17.2 60 15.6 90 90 E 6 9 29.85 1011 10 16 0.00 0.00
3:53 am 03:53 Cloudy 63 17.2 60 15.6 90 90 E 7 11 29.85 1011 10 16 0.00 0.00
4:53 am 04:53 Cloudy 63 17.2 59 15 87 87 SE 8 13 29.83 1010 10 16 0.00 0.00
5:53 am 05:53 Mostly Cloudy 62 16.7 59 15 90 90 ENE 7 11 29.82 1010 10 16 0.00 0.00
6:53 am 06:53 Partly Cloudy 62 16.7 59 15 90 90 ESE 7 11 29.82 1010 10 16 0.00 0.00
7:10 am 07:10 Mostly Cloudy 62 16.7 59 15 90 90 E 7 11 29.83 1010 10 16 0.00 0.00
7:53 am 07:53 Cloudy 63 17.2 59 15 87 87 E 9 15 29.82 1010 10 16 0.00 0.00
8:53 am 08:53 Cloudy 64 17.8 60 15.6 87 87 ESE 7 11 29.82 1010 10 16 0.00 0.00
9:16 am 09:16 Cloudy 65 18.3 60 15.6 84 84 SSE 7 11 29.83 1010 10 16 0.00 0.00
9:28 am 09:28 Cloudy 65 18.3 60 15.6 84 84 ESE 7 11 29.83 1010 10 16 0.00 0.00
9:53 am 09:53 Cloudy 65 18.3 60 15.6 84 84 ESE 7 11 29.82 1010 10 16 0.00 0.00
10:03 am 10:03 Cloudy 65 18.3 60 15.6 84 84 ESE 6 9 29.83 1010 10 16 0.00 0.00
10:34 am 10:34 Cloudy 65 18.3 60 15.6 84 84 E 6 9 29.83 1010 10 16 0.00 0.00
10:49 am 10:49 Cloudy 64 18 61 16 88 88 ENE 5 7 29.83 1010 10 16 0.00 0.00
10:53 am 10:53 Cloudy 66 18.9 60 15.6 81 81 ENE 6 9 29.82 1010 10 16 0.00 0.00
11:17 am 11:17 Cloudy 66 18.9 60 15.6 81 81 ENE 6 9 29.83 1010 10 16 0.00 0.00
11:53 am 11:53 Cloudy 66 18.9 60 15.6 81 81 Calm 29.83 1010 10 16 0.00 0.00
12:05 pm 12:05 Cloudy 67 19.4 60 15.6 79 79 NNE 6 9 29.83 1010 10 16 0.00 0.00
12:53 pm 12:53 Cloudy 68 20 61 16.1 78 78 N 7 11 29.83 1010 10 16 0.00 0.00
1:53 pm 13:53 Cloudy 70 21.1 61 16.1 73 73 NNE 9 15 29.82 1010 10 16 0.00 0.00
2:53 pm 14:53 Cloudy 71 21.7 60 15.6 68 68 NNE 6 9 29.83 1010 10 16 0.00 0.00
3:53 pm 15:53 Mostly Cloudy 73 22.8 60 15.6 64 64 E 7 11 29.82 1010 10 16 0.00 0.00
4:53 pm 16:53 Mostly Cloudy 73 22.8 60 15.6 64 64 Calm 29.81 1010 10 16 0.00 0.00
5:53 pm 17:53 Partly Cloudy 73 22.8 60 15.6 64 64 S 5 7 29.81 1010 10 16 0.00 0.00
6:53 pm 18:53 Partly Cloudy 74 23.3 60 15.6 62 62 Calm 29.82 1010 10 16 0.00 0.00
7:53 pm 19:53 Mostly Cloudy 73 22.8 61 16.1 66 66 NE 6 9 29.83 1010 10 16 0.00 0.00
8:53 pm 20:53 Partly Cloudy 70 21.1 61 16.1 73 73 NNE 5 7 29.85 1011 10 16 0.00 0.00
9:53 pm 21:53 Partly Cloudy 67 19.4 60 15.6 79 79 NNE 5 7 29.86 1011 10 16 0.00 0.00
10:53 pm 22:53 Mostly Clear 66 18.9 60 15.6 81 81 NNE 5 7 29.88 1012 10 16 0.00 0.00
11:53 pm 23:53 Mostly Clear 65 18.3 60 15.6 84 84 NNW 3 6 29.88 1012 10 16 0.00 0.00

Powered by AerisWeather